DW9330 Weather Reports


time (UTC)temp
C
wind
direction
speed
KPH
gust
KPH
rain 1hr
cm
rain 24hr
cm
rain mn
cm
humidity
%
barometer
mb
20260504214544 22 224 3.2 11.3 0.00 0.00 0.00 38 1008.9
20260504214043 22 209 3.2 12.9 0.00 0.00 0.00 39 1008.8
20260504213543 22 199 4.8 12.9 0.00 0.00 0.00 38 1008.8
20260504213101 22 257 6.4 12.9 0.00 0.00 0.00 39 1008.9
20260504212542 22 198 8.0 12.9 0.00 0.00 0.00 39 1009.0
20260504212045 22 200 4.8 12.9 0.00 0.00 0.00 39 1008.9
20260504211544 22 193 4.8 16.1 0.00 0.00 0.00 39 1008.8
20260504211043 22 212 4.8 16.1 0.00 0.00 0.00 39 1008.9
20260504210544 22 205 8.0 17.7 0.00 0.00 0.00 38 1008.8
20260504210042 22 228 4.8 12.9 0.00 0.00 0.00 38 1008.8
20260504205542 22 141 3.2 12.9 0.00 0.00 0.00 37 1008.8
20260504205041 22 205 4.8 14.5 0.00 0.00 0.00 39 1008.9
20260504204543 22 216 3.2 14.5 0.00 0.00 0.00 39 1008.9
20260504204040 22 210 6.4 16.1 0.00 0.00 0.00 39 1008.9
20260504203540 22 203 3.2 11.3 0.00 0.00 0.00 39 1008.9
20260504203040 22 261 3.2 14.5 0.00 0.00 0.00 40 1009.0
20260504202539 22 200 4.8 14.5 0.00 0.00 0.00 39 1009.1
20260504202037 22 208 6.4 16.1 0.00 0.00 0.00 37 1009.2
20260504201538 22 215 4.8 16.1 0.00 0.00 0.00 38 1009.3
20260504201037 22 255 6.4 12.9 0.00 0.00 0.00 38 1009.3
20260504200536 22 274 3.2 17.7 0.00 0.00 0.00 39 1009.4
20260504200036 22 232 8.0 17.7 0.00 0.00 0.00 38 1009.6
20260504195535 22 200 6.4 19.3 0.00 0.00 0.00 37 1009.6
20260504195034 22 172 4.8 19.3 0.00 0.00 0.00 40 1009.6
20260504194534 22 192 3.2 25.7 0.00 0.00 0.00 38 1009.7
20260504194034 22 203 6.4 25.7 0.00 0.00 0.00 37 1009.8
20260504193534 22 259 6.4 12.9 0.00 0.00 0.00 40 1009.8
20260504193038 22 200 4.8 11.3 0.00 0.00 0.00 40 1010.0
20260504192530 22 252 6.4 16.1 0.00 0.00 0.00 38 1010.2
20260504192030 22 259 4.8 16.1 0.00 0.00 0.00 39 1010.2
20260504191533 22 278 3.2 14.5 0.00 0.00 0.00 40 1010.3
20260504191030 22 221 4.8 24.1 0.00 0.00 0.00 38 1010.4
20260504190533 22 203 4.8 24.1 0.00 0.00 0.00 40 1010.4
20260504190032 22 187 6.4 19.3 0.00 0.00 0.00 41 1010.4
20260504185527 22 205 4.8 19.3 0.00 0.00 0.00 40 1010.5
20260504185028 22 276 4.8 19.3 0.00 0.00 0.00 43 1010.5
20260504184526 22 232 3.2 12.9 0.00 0.00 0.00 42 1010.7
20260504184025 22 231 4.8 19.3 0.00 0.00 0.00 39 1010.9
20260504183524 22 242 4.8 19.3 0.00 0.00 0.00 41 1011.0
20260504183023 21 225 6.4 11.3 0.00 0.00 0.00 43 1011.0
20260504182523 22 207 1.6 12.9 0.00 0.00 0.00 38 1011.0
20260504182024 22 198 3.2 12.9 0.00 0.00 0.00 42 1011.1
20260504181522 21 196 6.4 24.1 0.00 0.00 0.00 42 1011.1
20260504181022 21 211 3.2 24.1 0.00 0.00 0.00 43 1011.1
20260504180521 21 191 4.8 9.7 0.00 0.00 0.00 40 1011.1
20260504180020 21 250 3.2 11.3 0.00 0.00 0.00 39 1011.3
20260504175524 21 229 4.8 11.3 0.00 0.00 0.00 42 1011.3
20260504175024 21 233 3.2 11.3 0.00 0.00 0.00 38 1011.3
20260504174522 21 221 3.2 19.3 0.00 0.00 0.00 38 1011.3
20260504174019 21 177 1.6 16.1 0.00 0.00 0.00 43 1011.3
20260504173519 21 202 3.2 12.9 0.00 0.00 0.00 40 1011.4
20260504173018 21 205 3.2 12.9 0.00 0.00 0.00 40 1011.5
20260504172517 21 261 3.2 12.9 0.00 0.00 0.00 45 1011.6
20260504172021 21 280 3.2 12.9 0.00 0.00 0.00 43 1011.7
20260504171516 21 254 1.6 14.5 0.00 0.00 0.00 42 1011.7
20260504171015 20 174 6.4 11.3 0.00 0.00 0.00 40 1011.9
20260504170514 20 211 4.8 16.1 0.00 0.00 0.00 44 1011.9
20260504151059 18 225 4.8 12.9 0.00 0.00 0.00 44 1013.3
20260504150558 18 202 4.8 14.5 0.00 0.00 0.00 43 1013.3
20260504141050 17 223 3.2 12.9 0.00 0.00 0.00 45 1013.6
20260504140549 17 194 6.4 17.7 0.00 0.00 0.00 43 1013.7
20260504130539 15 360 3.2 11.3 0.00 0.00 0.00 48 1013.9
20260504110509 8 360 0.0 4.8 0.00 0.00 0.00 61 1014.2
20260504100605 6 360 0.0 4.8 0.00 0.00 0.00 64 1014.3
20260504100106 6 360 0.0 4.8 0.00 0.00 0.00 65 1014.4
20260504081535 7 257 0.0 3.2 0.00 0.00 0.00 60 1014.8
20260504081035 7 257 0.0 4.8 0.00 0.00 0.00 59 1014.8
20260504080535 7 257 0.0 4.8 0.00 0.00 0.00 59 1014.8
20260504050523 7 227 0.0 4.8 0.00 0.00 0.00 61 1015.1
20260504050022 7 221 0.0 3.2 0.00 0.00 0.00 62 1015.1
20260504045521 7 360 1.6 4.8 0.00 0.00 0.00 63 1015.2
20260504045023 7 222 0.0 3.2 0.00 0.00 0.00 63 1015.1
20260504044532 7 360 0.0 4.8 0.00 0.00 0.00 64 1015.1
20260504044021 7 360 0.0 4.8 0.00 0.00 0.00 65 1015.1
20260504043520 7 360 0.0 1.6 0.00 0.00 0.00 64 1015.1
20260504043029 7 360 0.0 0.0 0.00 0.00 0.00 64 1015.1
20260504042519 7 223 0.0 1.6 0.00 0.00 0.00 63 1015.1
20260504042021 7 224 0.0 1.6 0.00 0.00 0.00 63 1015.1
20260504041518 7 224 0.0 1.6 0.00 0.00 0.00 62 1015.2
20260504041017 7 224 0.0 1.6 0.00 0.00 0.00 63 1015.1
20260504040517 7 224 0.0 0.0 0.00 0.00 0.00 64 1015.0
20260504040019 7 223 0.0 0.0 0.00 0.00 0.00 62 1015.0
20260504035515 8 224 0.0 1.6 0.00 0.00 0.00 62 1014.9
20260504035015 8 224 0.0 6.4 0.00 0.00 0.00 61 1014.9
20260504034515 8 224 0.0 6.4 0.00 0.00 0.00 61 1014.9
20260504034014 8 228 0.0 1.6 0.00 0.00 0.00 62 1014.9
20260504033514 8 228 0.0 1.6 0.00 0.00 0.00 61 1014.9
20260504033015 8 229 0.0 4.8 0.00 0.00 0.00 60 1014.9
20260504032514 8 229 0.0 4.8 0.00 0.00 0.00 60 1014.9
20260504032015 8 230 0.0 4.8 0.00 0.00 0.00 59 1014.9
20260504031517 8 245 0.0 1.6 0.00 0.00 0.00 60 1014.8
20260504031013 8 245 0.0 1.6 0.00 0.00 0.00 61 1014.7
20260504030513 8 245 0.0 1.6 0.00 0.00 0.00 60 1014.7
20260504030014 8 245 0.0 3.2 0.00 0.00 0.00 60 1014.7
20260504025515 8 246 0.0 3.2 0.00 0.00 0.00 60 1014.7
20260504025014 8 245 0.0 3.2 0.00 0.00 0.00 60 1014.7
20260504024512 8 246 0.0 3.2 0.00 0.00 0.00 61 1014.8
20260504024013 8 245 0.0 0.0 0.00 0.00 0.00 61 1014.7
20260504023513 8 360 0.0 1.6 0.00 0.00 0.00 61 1014.6
20260504023013 8 245 0.0 1.6 0.00 0.00 0.00 60 1014.6
20260504022514 8 246 0.0 0.0 0.00 0.00 0.00 59 1014.6
20260504022013 8 246 0.0 3.2 0.00 0.00 0.00 58 1014.5
20260504021514 8 246 0.0 3.2 0.00 0.00 0.00 58 1014.6
20260504021012 8 246 0.0 3.2 0.00 0.00 0.00 58 1014.6
20260504020512 8 246 0.0 3.2 0.00 0.00 0.00 59 1014.6
20260504020012 8 246 0.0 0.0 0.00 0.00 0.00 58 1014.7
20260504015511 8 246 0.0 1.6 0.00 0.00 0.00 58 1014.6
20260504015011 8 246 0.0 1.6 0.00 0.00 0.00 57 1014.6
20260504014511 8 246 0.0 1.6 0.00 0.00 0.00 57 1014.6
20260504014012 8 246 0.0 3.2 0.00 0.00 0.00 57 1014.6
20260504013513 8 360 0.0 1.6 0.00 0.00 0.00 56 1014.5
20260504013017 8 360 0.0 1.6 0.00 0.00 0.00 56 1014.5
20260504012511 8 360 0.0 0.0 0.00 0.00 0.00 56 1014.4
20260504012010 9 245 0.0 0.0 0.00 0.00 0.00 55 1014.4
20260504011510 9 244 0.0 0.0 0.00 0.00 0.00 55 1014.3
20260504011012 9 243 0.0 0.0 0.00 0.00 0.00 54 1014.2
20260504010510 10 243 0.0 0.0 0.00 0.00 0.00 55 1014.2
20260504010009 10 244 0.0 0.0 0.00 0.00 0.00 53 1014.3
20260504005509 10 243 0.0 0.0 0.00 0.00 0.00 52 1014.2
20260504005009 10 243 0.0 0.0 0.00 0.00 0.00 52 1014.2
20260504004516 10 360 0.0 0.0 0.00 0.00 0.00 52 1014.2
20260504004009 10 360 0.0 0.0 0.00 0.00 0.00 51 1014.2
20260504003508 11 244 0.0 0.0 0.00 0.00 0.00 50 1014.1
20260504003008 11 244 0.0 0.0 0.00 0.00 0.00 49 1014.0
20260504002509 11 244 0.0 0.0 0.00 0.00 0.00 48 1014.0
20260504002009 11 243 0.0 0.0 0.00 0.00 0.00 47 1013.9
20260504001509 12 241 0.0 0.0 0.00 0.00 0.00 45 1013.9
20260504001009 12 240 0.0 1.6 0.00 0.00 0.00 45 1013.8
20260504000508 12 242 0.0 1.6 0.00 0.00 0.00 43 1013.7
20260504000008 12 242 0.0 1.6 0.00 0.00 0.00 44 1013.7
20260503235507 13 242 0.0 1.6 0.00 0.00 0.00 41 1013.7
20260503235007 13 242 0.0 1.6 0.00 0.00 0.00 40 1013.6
20260503234513 13 240 0.0 1.6 0.00 0.00 0.00 40 1013.5
20260503234007 13 241 0.0 3.2 0.00 0.00 0.00 39 1013.5
20260503233508 13 240 0.0 4.8 0.00 0.00 0.00 40 1013.4
20260503233008 13 246 0.0 4.8 0.00 0.00 0.00 39 1013.3
20260503232507 13 248 0.0 4.8 0.00 0.00 0.00 36 1013.3
20260503232007 14 249 1.6 4.8 0.00 0.00 0.00 36 1013.3
20260503231507 14 248 1.6 4.8 0.00 0.00 0.00 37 1013.3
20260503231007 14 244 0.0 4.8 0.00 0.00 0.00 38 1013.3
20260503230507 14 245 0.0 4.8 0.00 0.00 0.00 38 1013.3
20260503230006 14 248 0.0 4.8 0.00 0.00 0.00 37 1013.3
20260503225506 15 237 0.0 4.8 0.00 0.00 0.00 36 1013.3
20260503225007 15 238 0.0 3.2 0.00 0.00 0.00 35 1013.4
20260503224506 15 238 0.0 4.8 0.00 0.00 0.00 36 1013.4
20260503224006 15 238 0.0 8.0 0.00 0.00 0.00 35 1013.3
20260503223506 15 234 1.6 8.0 0.00 0.00 0.00 36 1013.4
20260503223005 15 273 1.6 6.4 0.00 0.00 0.00 36 1013.3
20260503222505 15 225 1.6 9.7 0.00 0.00 0.00 35 1013.3
20260503222005 15 275 1.6 9.7 0.00 0.00 0.00 36 1013.3
20260503221506 15 231 1.6 9.7 0.00 0.00 0.00 36 1013.4
20260503221005 15 270 3.2 9.7 0.00 0.00 0.00 35 1013.3
20260503220509 15 232 1.6 8.0 0.00 0.00 0.00 36 1013.3
20260503220004 15 211 0.0 4.8 0.00 0.00 0.00 34 1013.4
20260503215504 15 208 1.6 4.8 0.00 0.00 0.00 36 1013.4
20260503215003 15 207 0.0 11.3 0.00 0.00 0.00 36 1013.5